Location: La Sioule Rivi�re
(46.3664°N, 3.3197°E)
Time: 13:03:46
(UTC+00:00)

Ariane Rocket - Pass Details

Date: 29 October 2020
Orbit: 759 x 770 km, 98.7° (Epoch: 23 November)

Event Time Altitude Azimuth Distance (km) Brightness Sun altitude
Exits shadow 19:33:53 29° 349° (NNW) 1,378 4.4 -31.1°
Drops below altitude 10° 19:36:22 10° 347° (NNW) 2,323 5.8 -31.5°
Sets 19:38:41 0° 347° (NNW) 3,253 6.6 -31.9°
